Location: Ajisawe
(8.4333°N, 4.3833°E)
Time: 21:20:52
(UTC+00:00)

Vanguard 2 Rocket - Pass Details

Date: 25 April 2021
Orbit: 554 x 3326 km, 32.9° (Epoch: 16 May)

Event Time Altitude Azimuth Distance (km) Brightness Sun altitude
Rises 16:21:06 0° 306° (NW) 7,207 12.6 21.1°
Reaches altitude 10° 16:26:26 10° 313° (NW) 6,271 12.3 19.8°
Maximum altitude 16:45:21 45° 21° (NNE) 3,711 10.1 15.2°
Drops below altitude 10° 16:59:19 10° 89° (E) 4,784 10.0 11.9°
Sets 17:02:41 0° 96° (E) 5,450 10.2 11.0°
